Regional Weather Roundup
Issued by NWS Kansas City/Pleasant Hill, MO

Home | Current Version | Previous Version | Graphics & Text | Print | Product List | Glossary Off
Versions: 1 2 3 4 5 6 7 8 9 10 11 12 13 14 15 16 17 18 19 20 21 22 23 24 25 26 27 28 29 30 31 32 33 34 35 36 37 38 39 40 41 42 43 44 45 46 47 48 49 50

000
ASUS43 KEAX 040804
RWREAX

WEATHER ROUNDUP FOR EASTERN KANSAS AND NORTHWEST MISSOURI
NATIONAL WEATHER SERVICE KANSAS CITY/PLEASANT HILL MO
300 AM CDT SAT JUL 04 2015

KSZ040-057-103>105-MOZ028-029-037-043-040900-
...KANSAS CITY METROPOLITAN AREA...

CITY           SKY/WX    TMP DP  RH WIND       PRES   REMARKS
K.C. INTL      CLEAR     66  57  72 E5        29.98F
K.C. DOWNTOWN  LGT RAIN  67  62  84 CALM      29.98S
LEES SUMMIT    CLEAR     64  61  90 CALM      29.99F
OLATHE - IXD   PTCLDY    65  61  87 E6        29.99F
OLATHE - OJC   PTCLDY    65  58  78 E6        29.98F
LAWRENCE       PTCLDY    60  58  92 CALM      29.99S FOG

$$

MOZ001>008-011>017-020>025-030>033-038>040-044>046-053-054-040900-
...NORTHERN AND CENTRAL MISSOURI...

CITY           SKY/WX    TMP DP  RH WIND       PRES   REMARKS
ST. JOSEPH     CLEAR     60  58  92 NW3       29.99S
MOSBY          SUNNY     61  61 100 CALM      29.99S FOG
HARRISONVILLE  PTCLDY    64  61  88 CALM      30.01S
WHITEMAN AFB   CLEAR     62  61  97 CALM      29.97S
CLINTON        CLEAR     64  63  94 NE3       29.98S
SEDALIA        CLEAR     64  61  90 CALM      29.99S
WARSAW         FAIR      63  63 100 CALM      29.98S
CHILLICOTHE      N/A     61  59  93 CALM      30.00F
KIRKSVILLE     CLEAR     58  56  93 CALM      30.00S FOG

$$

MOZ041-047>049-056>058-063>065-088>090-097-040900-
...EASTERN AND SOUTHERN MISSOURI...

CITY           SKY/WX    TMP DP  RH WIND       PRES   REMARKS
ST. LOUIS INTL CLEAR     70  65  84 CALM      29.95F HAZE
SPIRIT OF STL  CLEAR     65  65 100 CALM      29.94F FOG
COLUMBIA       CLEAR     65  60  84 NE5       29.97S
JEFFERSON CITY CLEAR     64  61  90 CALM      29.96S
MEXICO         CLEAR    N/A N/A N/A CALM      29.97F
ROLLA          CLEAR     64  61  90 NE3       29.96S
LEBANON        CLEAR     64  61  88 CALM      29.98S
OSAGE BEACH    CLEAR     63  61  94 CALM      29.97S
SPRINGFIELD    CLOUDY    69  64  84 NE5       29.97S
BRANSON        FOG       68  68 100 CALM      29.97F VSB 1
JOPLIN         PTCLDY    68  67  96 NE3       29.97S
WEST PLAINS    CLEAR     67  63  87 N3        29.97S
MALDEN         CLEAR     70  68  94 CALM      29.90F FOG

$$

IAZ060-094-KSZ022-034>040-054-083-096-NEZ052-066-093-040900-
...KANSAS...SOUTHEAST NEBRASKA AND IOWA...

CITY           SKY/WX    TMP DP  RH WIND       PRES   REMARKS
TOPEKA         CLEAR     63  61  93 CALM      29.98F FOG
MANHATTAN      CLEAR     60  59  96 CALM      29.99F
EMPORIA        CLEAR     63  61  93 CALM      29.99S
CHANUTE        MOCLDY    68  64  87 NE3       29.97F
WICHITA        CLEAR     69  62  78 E6        29.98S
OMAHA          CLEAR     62  56  80 CALM      29.99S
LINCOLN        CLEAR     65  59  81 S3        30.00F
FALLS CITY     CLEAR     62  57  83 CALM      29.98S
LAMONI         CLEAR     65  54  67 S3        30.00S
DES MOINES     PTCLDY    64  56  75 CALM      29.98S

$$




USA.gov is the U.S. government's official web portal to all federal, state and local government web resources and services.